Flag for U.S.A. Weather past 2 weeks in Concord, California, U.S.A.

Now
54 °F

Fog.


Feels Like: 54 °F
Forecast: 49 / 57 °F
Wind: 3 mph from Northwest

Location: Buchanan Field

Current Time: Dec 19, 2014 at 10:04:01 PM

Latest Report: Dec 19, 2014 at 8:53 PM


Visibility: 3 mi

Pressure: 30.10 "Hg

Humidity: 90%

Dew point: 51 °F

Location of ConcordLocation

Historic Weather in Concord — Graph

°F

Concord temperature yesterday

Maximum temperature yesterday: 59 °F (at 2:53 PM)
Minimum temperature yesterday: 51 °F (at 4:53 AM)
Average temperature yesterday: 54 °F

Past Weeks' High & Low Weather Summary

 TemperatureHumidityPressure
High67 °F (Dec 5, 3:53 PM)97% (Dec 4, 10:53 PM)30.23 "Hg (Dec 4, 10:53 PM)
Low45 °F (Dec 13, 2:00 AM)54% (Dec 16, 1:53 PM)29.46 "Hg (Dec 11, 7:53 AM)
Average55 °F85%30.00 "Hg
* Reported Dec 4 8:53 PM — Dec 19 8:53 PM, Concord, Weather by CustomWeather, © 2014

Note: Actual official high and low records may vary slightly from our data, if they occured in-between our weather recording intervals... More about our weather records

Advertising

Concord weather history for previous 24 hours

 ConditionsComfort  
Time TempWeatherWind HumidityBarometerVisibility
8:53 PM
Dec 19
54 °FFog.3 mph90%30.10 "Hg3 mi
7:53 PM53 °FFog.No wind93%30.09 "Hg2 mi
6:53 PM53 °FFog.No wind96%30.09 "Hg1 mi
5:53 PM53 °FFog.No wind96%30.10 "Hg2 mi
4:53 PM53 °FFog.6 mph93%30.11 "Hg2 mi
3:53 PM53 °FRain. Fog.9 mph93%30.10 "Hg2 mi
2:53 PM55 °FRain. Fog.3 mph93%30.09 "Hg2 mi
2:03 PM55 °FRain. Fog.9 mph90%30.12 "Hg2 mi
1:53 PM55 °FLight rain. Fog.7 mph90%30.08 "Hg4 mi
12:53 PM58 °FLight rain. Cloudy.5 mph87%30.08 "Hg10 mi
11:53 AM57 °FLight rain. Mostly cloudy.7 mph87%30.09 "Hg7 mi
10:53 AM57 °FRain. Fog.10 mph87%30.11 "Hg4 mi
9:53 AM55 °FRain. Fog.3 mph90%30.13 "Hg5 mi
8:53 AM58 °FCloudy.8 mph72%30.10 "Hg10 mi
7:53 AM57 °FBroken clouds.9 mph78%30.07 "Hg10 mi
6:53 AM57 °FPassing clouds.9 mph74%30.06 "Hg10 mi
5:53 AM56 °FMostly cloudy.6 mph81%30.07 "Hg10 mi
4:53 AM56 °FMostly cloudy.3 mph77%30.09 "Hg10 mi
3:53 AM56 °FMostly cloudy.3 mph77%30.10 "Hg10 mi
2:53 AM55 °FMostly cloudy.7 mph80%30.10 "Hg10 mi
1:53 AM54 °FMostly cloudy.3 mph83%30.11 "Hg10 mi
12:53 AM52 °FMostly cloudy.No wind89%30.11 "Hg7 mi
11:53 PM
Dec 18
52 °FFog.No wind89%30.13 "Hg5 mi
10:53 PM52 °FFog.5 mph93%30.13 "Hg4 mi
Weather by CustomWeather, © 2014

See weather overviewHow to use our weather pages